Location: Unspecified
(0.0000°N, 0.0000°E)
Time: 20:38:38
(UTC+00:00)

CZ-3C DEB - Pass Details

Date: 10 March 2026
Orbit: 404 x 27665 km, 19.3° (Epoch: 21 April)

Event Time Altitude Azimuth Distance (km) Brightness Sun altitude
Rises 19:31:42 0° 279° (W) 10,061 ? -20.3°
Reaches altitude 10° 19:37:13 10° 283° (WNW) 10,510 ? -21.7°
Enters shadow 01:08:03 55° 299° (WNW) 21,992 ? -75.0°
Exits shadow 02:18:15 74° 285° (WNW) 10,078 ? -57.8°
Maximum altitude 02:30:01 87° 205° (SSW) 7,343 ? -54.9°
Drops below altitude 10° 02:50:52 10° 114° (ESE) 5,131 ? -49.7°
Sets 02:52:57 0° 113° (ESE) 5,493 ? -49.2°
